Weather History for Pellston, MI

Change the Weather History Date:

Friday, February 21, 2014

  Actual Average Record
Temperature  
Mean Temperature 28 °F -  
Max Temperature 37 °F 31 °F 47 °F (1975)
Min Temperature 19 °F 11 °F -26 °F (1963)
Degree Days  
Heating Degree Days 37    
Moisture  
Dew Point 21 °F    
Average Humidity 81    
Maximum Humidity 96    
Minimum Humidity 70    
Precipitation  
Precipitation 0.14 in - - ()
Sea Level Pressure  
Sea Level Pressure 29.26 in    
Wind  
Wind Speed 17 mph (SW)    
Max Wind Speed 23 mph    
Max Gust Speed 40 mph    
Visibility 2 miles    
Events Fog , Rain , Snow    
Averages and records for this station are not official NWS values.
T = Trace of Precipitation, MM = Missing Value Source: NWS Daily Summary

Daily Weather History Graph

Daily Weather History Graph

Search for Another Location

Airport:

Trip Planner

Search our weather history database for the weather conditions in past years. The results will help you decide how hot, cold, wet, or windy it might be!

Date:

Astronomy

Feb. 21, 2014 Rise Set
Actual Time 7:31 AM EST 6:14 PM EST
Civil Twilight 7:01 AM EST 6:45 PM EST
Nautical Twilight 6:26 AM EST 7:19 PM EST
Astronomical Twilight 5:52 AM EST 7:53 PM EST
Moon 12:26 AM EST (2/21) 10:35 AM EST (2/21)
Length of Visible Light 11h 43m
Length of Day
10h 43m
Waning Gibbous, 61% of the Moon is Illuminated
Feb 21
Waning Gibbous
Feb 22
Last Quarter
Mar 1
New
Mar 8
First Quarter
Mar 16
Full

Hourly Weather History & Observations

Time (EST) Temp. Windchill Dew Point Humidity Pressure Visibility Wind Dir Wind Speed Gust Speed Precip Events Conditions
12:54 AM 34.0 °F 23.4 °F 32.0 °F 92% 29.26 in 7.0 mi SSE 17.3 mph 26.5 mph N/A   Overcast
1:54 AM 34.0 °F 24.2 °F 33.1 °F 96% 29.19 in 5.0 mi SE 15.0 mph 23.0 mph N/A   Overcast
2:54 AM 35.1 °F 27.9 °F 34.0 °F 96% 29.16 in 4.0 mi SE 9.2 mph - 0.00 in   Overcast
3:54 AM 36.0 °F 28.0 °F 34.0 °F 93% 29.15 in 10.0 mi South 11.5 mph 24.2 mph 0.02 in Rain Light Rain
4:07 AM 37.0 °F 29.3 °F 32.0 °F 82% 29.14 in 10.0 mi South 11.5 mph 23.0 mph 0.00 in   Overcast
4:54 AM 37.0 °F 27.7 °F 28.9 °F 73% 29.16 in 10.0 mi South 16.1 mph 27.6 mph 0.00 in   Overcast
5:54 AM 37.0 °F 27.4 °F 28.0 °F 70% 29.16 in 10.0 mi SSW 17.3 mph 25.3 mph N/A   Overcast
6:54 AM 36.0 °F 29.0 °F 27.0 °F 70% 29.16 in 10.0 mi SSW 9.2 mph 27.6 mph N/A   Overcast
7:54 AM 36.0 °F 27.1 °F 27.0 °F 70% 29.16 in 10.0 mi South 13.8 mph 32.2 mph 0.00 in   Overcast
8:54 AM 35.1 °F 25.9 °F 27.0 °F 72% 29.15 in 10.0 mi SSW 13.8 mph 20.7 mph 0.00 in   Overcast
9:49 AM 33.8 °F 22.2 °F 26.6 °F 75% 29.13 in 1.8 mi SW 20.7 mph 28.8 mph 0.00 in Snow Light Snow
9:54 AM 33.1 °F 21.9 °F 26.1 °F 75% 29.16 in 1.0 mi SW 18.4 mph 28.8 mph 0.00 in Snow Light Snow
10:44 AM 28.9 °F 15.8 °F 24.1 °F 82% 29.16 in 0.5 mi SW 20.7 mph 29.9 mph 0.01 in Snow Snow
10:54 AM 28.9 °F 16.9 °F 23.0 °F 78% 29.18 in 0.5 mi SW 17.3 mph 32.2 mph 0.01 in Snow Snow
11:54 AM 27.0 °F 13.2 °F 21.0 °F 78% 29.20 in 0.8 mi SSW 20.7 mph 32.2 mph 0.01 in Snow Light Snow
12:54 PM 26.1 °F 11.3 °F 19.9 °F 78% 29.20 in 0.5 mi SW 23.0 mph 32.2 mph 0.00 in Snow Snow
1:15 PM 25.0 °F 10.9 °F 21.0 °F 85% 29.18 in 0.2 mi SW 19.6 mph 28.8 mph 0.00 in Fog , Snow Snow
1:29 PM 25.0 °F 10.2 °F 18.0 °F 75% 29.19 in 0.5 mi WSW 21.9 mph 36.8 mph 0.00 in Snow Snow
1:42 PM 25.0 °F 12.2 °F 18.0 °F 75% 29.19 in 1.0 mi SW 16.1 mph 38.0 mph 0.00 in Snow Light Snow
1:54 PM 25.0 °F 10.9 °F 19.0 °F 78% 29.22 in 1.0 mi SW 19.6 mph 34.5 mph 0.01 in Snow Light Snow
2:02 PM 24.1 °F 9.8 °F 19.0 °F 81% 29.19 in 0.5 mi SW 19.6 mph 32.2 mph 0.00 in Snow Snow
2:10 PM 24.1 °F 12.0 °F 19.0 °F 81% 29.19 in 0.2 mi SW 13.8 mph 27.6 mph 0.00 in Snow Heavy Snow
2:12 PM 24.1 °F 10.1 °F 19.0 °F 81% 29.20 in 0.5 mi SW 18.4 mph 27.6 mph 0.00 in Snow Snow
2:54 PM 24.1 °F 9.4 °F 19.0 °F 81% 29.23 in 0.5 mi SW 20.7 mph 28.8 mph 0.00 in Snow Snow
3:01 PM 23.0 °F 8.7 °F 19.0 °F 85% 29.21 in 0.2 mi SW 18.4 mph 29.9 mph 0.00 in Fog , Snow Snow
3:54 PM 23.0 °F 8.3 °F 18.0 °F 81% 29.27 in 0.2 mi SW 19.6 mph 36.8 mph 0.01 in Snow Heavy Snow
4:07 PM 23.0 °F 8.0 °F 18.0 °F 81% 29.25 in 0.2 mi SW 20.7 mph 27.6 mph 0.00 in Snow Heavy Snow
4:54 PM 21.9 °F 9.8 °F 19.0 °F 89% 29.30 in 0.2 mi SW 12.7 mph 31.1 mph 0.02 in Fog , Snow Heavy Snow
5:19 PM 23.0 °F 8.7 °F 18.0 °F 81% 29.28 in 0.5 mi WSW 18.4 mph 31.1 mph 0.00 in Snow Snow
5:28 PM 23.0 °F 7.6 °F 18.0 °F 81% 29.29 in 0.2 mi WSW 21.9 mph 38.0 mph 0.01 in Snow Heavy Snow
5:36 PM 23.0 °F 7.6 °F 17.1 °F 78% 29.29 in 0.5 mi WSW 21.9 mph 38.0 mph 0.01 in Snow Snow
5:54 PM 23.0 °F 7.6 °F 17.1 °F 78% 29.33 in 0.5 mi WSW 21.9 mph 40.3 mph 0.01 in Snow Snow
6:31 PM 23.0 °F 9.6 °F 17.1 °F 78% 29.32 in 1.2 mi WSW 16.1 mph 31.1 mph 0.00 in Snow Light Snow
6:54 PM 23.0 °F 9.6 °F 17.1 °F 78% 29.37 in 1.0 mi WSW 16.1 mph 33.4 mph 0.00 in Snow Light Snow
7:12 PM 23.0 °F 8.3 °F 18.0 °F 81% 29.34 in 0.8 mi WSW 19.6 mph 34.5 mph 0.00 in Snow Light Snow
7:34 PM 23.0 °F 11.1 °F 19.0 °F 85% 29.35 in 0.8 mi WSW 12.7 mph 24.2 mph 0.01 in Snow Light Snow
7:54 PM 23.0 °F 10.6 °F 19.0 °F 85% 29.38 in 0.8 mi WSW 13.8 mph 23.0 mph 0.01 in Snow Light Snow
8:54 PM 21.9 °F 8.2 °F 18.0 °F 85% 29.41 in 0.8 mi West 16.1 mph 38.0 mph 0.01 in Snow Light Snow
9:54 PM 21.0 °F 7.6 °F 17.1 °F 85% 29.44 in 0.8 mi WSW 15.0 mph 25.3 mph 0.02 in Snow Light Snow
10:54 PM 19.9 °F 5.7 °F 16.0 °F 85% 29.47 in 1.0 mi WSW 16.1 mph 26.5 mph 0.00 in Snow Light Snow
11:04 PM 19.9 °F 3.2 °F 15.1 °F 81% 29.44 in 0.8 mi West 23.0 mph 34.5 mph 0.01 in Snow Light Snow
11:17 PM 19.9 °F 3.9 °F 15.1 °F 81% 29.45 in 1.0 mi WSW 20.7 mph 31.1 mph 0.01 in Snow Light Snow
11:25 PM 19.9 °F 3.9 °F 15.1 °F 81% 29.45 in 0.8 mi WSW 20.7 mph 29.9 mph 0.01 in Snow Light Snow
11:54 PM 19.0 °F 4.0 °F 15.1 °F 85% 29.50 in 0.8 mi WSW 17.3 mph 26.5 mph 0.01 in Snow Light Snow